• Em Portugal
  • Lista de países
  • Para 7 dias
  • Temperatura da água
  • Mapas de satélite
  • Mapa do tempo
  • Widgets de tempo
  • user-avatar
    Iniciar Sessão

    Previsão horária em Irbid

    Hoje, 22 Janeiro, Segunda-feira

    Tempo Temperatura Precipitação Vento Pressão Humidade
    00:00 +10°C° 0 mm 3 m/s 710 mmHg 41%
    01:00 +10°C° 0 mm 3 m/s 709 mmHg 41%
    02:00 +9°C° 0 mm 2 m/s 709 mmHg 42%
    03:00 +9°C° 0 mm 2 m/s 708 mmHg 41%
    04:00 +9°C° 0 mm 2 m/s 708 mmHg 41%
    05:00 +9°C° 0 mm 2 m/s 708 mmHg 41%
    06:00 +10°C° 0 mm 2 m/s 708 mmHg 40%
    07:00 +10°C° 0 mm 2 m/s 708 mmHg 40%
    08:00 +12°C° 0 mm 2 m/s 708 mmHg 39%
    09:00 +13°C° 0 mm 3 m/s 708 mmHg 37%
    10:00 +14°C° 0 mm 4 m/s 709 mmHg 35%
    11:00 +16°C° 0 mm 5 m/s 709 mmHg 32%
    12:00 +16°C° 0 mm 6 m/s 709 mmHg 33%
    13:00 +16°C° 0 mm 6 m/s 708 mmHg 34%
    14:00 +16°C° 0 mm 7 m/s 708 mmHg 35%
    15:00 +15°C° 0 mm 6 m/s 708 mmHg 41%
    16:00 +14°C° 0 mm 5 m/s 708 mmHg 46%
    17:00 +12°C° 0 mm 4 m/s 708 mmHg 52%
    18:00 +12°C° 0 mm 3 m/s 708 mmHg 56%
    19:00 +12°C° 0 mm 2 m/s 708 mmHg 59%
    20:00 +11°C° 0 mm 1 m/s 708 mmHg 63%
    21:00 +10°C° 0 mm 2 m/s 708 mmHg 60%
    22:00 +10°C° 0 mm 2 m/s 708 mmHg 58%
    23:00 +10°C° 0 mm 3 m/s 708 mmHg 56%

    Amanhã, 23 Janeiro, Terça-feira

    Tempo Temperatura Precipitação Vento Pressão Humidade
    00:00 +10°C° 0 mm 3 m/s 707 mmHg 57%
    01:00 +10°C° 0 mm 3 m/s 707 mmHg 58%
    02:00 +10°C° 0 mm 4 m/s 707 mmHg 59%
    03:00 +9°C° 0,5 mm 5 m/s 707 mmHg 63%
    04:00 +9°C° 0,5 mm 5 m/s 707 mmHg 67%
    05:00 +9°C° 0,5 mm 6 m/s 706 mmHg 71%
    06:00 +9°C° 1,5 mm 6 m/s 707 mmHg 76%
    07:00 +9°C° 1,5 mm 7 m/s 707 mmHg 80%
    08:00 +9°C° 1,5 mm 7 m/s 707 mmHg 84%
    09:00 +9°C° 0,6 mm 8 m/s 708 mmHg 81%
    10:00 +10°C° 0,6 mm 8 m/s 708 mmHg 78%
    11:00 +10°C° 0,6 mm 9 m/s 709 mmHg 74%
    12:00 +10°C° 0,2 mm 8 m/s 709 mmHg 74%
    13:00 +10°C° 0,2 mm 8 m/s 709 mmHg 73%
    14:00 +11°C° 0,2 mm 8 m/s 709 mmHg 72%
    15:00 +10°C° 0,1 mm 7 m/s 709 mmHg 75%
    16:00 +10°C° 0,1 mm 6 m/s 709 mmHg 78%
    17:00 +9°C° 0,1 mm 6 m/s 709 mmHg 80%
    18:00 +9°C° 0,1 mm 5 m/s 709 mmHg 82%
    19:00 +10°C° 0,1 mm 4 m/s 710 mmHg 84%
    20:00 +8°C° 0,1 mm 4 m/s 710 mmHg 86%
    21:00 +9°C° 0,1 mm 3 m/s 710 mmHg 86%
    22:00 +9°C° 0,1 mm 3 m/s 710 mmHg 86%
    23:00 +9°C° 0,1 mm 3 m/s 711 mmHg 87%

    Depois de amanhã, 24 Janeiro, Quarta-feira

    Tempo Temperatura Precipitação Vento Pressão Humidade
    00:00 +9°C° 0,1 mm 3 m/s 711 mmHg 87%
    01:00 +8°C° 0,1 mm 3 m/s 711 mmHg 87%
    02:00 +8°C° 0,1 mm 2 m/s 711 mmHg 87%
    03:00 +8°C° 0,1 mm 2 m/s 710 mmHg 86%
    04:00 +8°C° 0,1 mm 2 m/s 710 mmHg 86%
    05:00 +8°C° 0,1 mm 2 m/s 710 mmHg 86%
    06:00 +9°C° 0,1 mm 2 m/s 711 mmHg 84%
    07:00 +9°C° 0,1 mm 2 m/s 711 mmHg 82%
    08:00 +9°C° 0,1 mm 2 m/s 711 mmHg 80%
    09:00 +10°C° 0,1 mm 2 m/s 711 mmHg 75%
    10:00 +12°C° 0,1 mm 2 m/s 712 mmHg 69%
    11:00 +13°C° 0,1 mm 2 m/s 712 mmHg 64%
    12:00 +13°C° 0,1 mm 2 m/s 711 mmHg 63%
    13:00 +14°C° 0,1 mm 2 m/s 711 mmHg 61%
    14:00 +13°C° 0,1 mm 3 m/s 710 mmHg 60%
    15:00 +13°C° 0,1 mm 2 m/s 710 mmHg 63%
    16:00 +13°C° 0,1 mm 2 m/s 710 mmHg 67%
    17:00 +12°C° 0,1 mm 2 m/s 710 mmHg 71%
    18:00 +11°C° 0 mm 1 m/s 710 mmHg 74%
    19:00 +11°C° 0 mm 1 m/s 710 mmHg 77%
    20:00 +10°C° 0 mm 1 m/s 710 mmHg 81%
    21:00 +10°C° 0 mm 1 m/s 710 mmHg 82%
    22:00 +10°C° 0 mm 1 m/s 710 mmHg 83%
    23:00 +9°C° 0 mm 1 m/s 710 mmHg 85%

    25 Janeiro, Quinta-feira

    Tempo Temperatura Precipitação Vento Pressão Humidade
    00:00 +9°C° 0 mm 1 m/s 709 mmHg 86%
    01:00 +9°C° 0 mm 1 m/s 709 mmHg 87%
    02:00 +8°C° 0 mm 1 m/s 709 mmHg 88%
    03:00 +9°C° 0,2 mm 1 m/s 709 mmHg 87%
    04:00 +9°C° 0,2 mm 1 m/s 708 mmHg 87%
    05:00 +9°C° 0,2 mm 1 m/s 708 mmHg 86%
    06:00 +9°C° 0,3 mm 1 m/s 709 mmHg 84%
    07:00 +8°C° 0,3 mm 2 m/s 709 mmHg 82%
    08:00 +9°C° 0,3 mm 2 m/s 709 mmHg 80%
    09:00 +8°C° 1,1 mm 3 m/s 709 mmHg 81%
    10:00 +7°C° 1,1 mm 4 m/s 709 mmHg 83%
    11:00 +7°C° 1,1 mm 4 m/s 709 mmHg 84%
    12:00 +8°C° 0,5 mm 5 m/s 709 mmHg 82%
    13:00 +8°C° 0,5 mm 6 m/s 709 mmHg 80%
    14:00 +8°C° 0,5 mm 6 m/s 708 mmHg 77%
    15:00 +8°C° 0,2 mm 6 m/s 708 mmHg 78%
    16:00 +8°C° 0,2 mm 6 m/s 708 mmHg 78%
    17:00 +7°C° 0,2 mm 5 m/s 708 mmHg 78%
    18:00 +7°C° 0,1 mm 4 m/s 709 mmHg 80%
    19:00 +6°C° 0,1 mm 4 m/s 709 mmHg 82%
    20:00 +7°C° 0,1 mm 3 m/s 709 mmHg 83%
    21:00 +7°C° 0,5 mm 3 m/s 709 mmHg 83%
    22:00 +7°C° 0,5 mm 2 m/s 708 mmHg 83%
    23:00 +7°C° 0,5 mm 2 m/s 708 mmHg 82%

    26 Janeiro, Sexta-feira

    Tempo Temperatura Precipitação Vento Pressão Humidade
    00:00 +7°C° 0,2 mm 2 m/s 708 mmHg 83%
    01:00 +7°C° 0,2 mm 2 m/s 708 mmHg 84%
    02:00 +7°C° 0,2 mm 2 m/s 708 mmHg 84%
    03:00 +7°C° 0,1 mm 2 m/s 708 mmHg 86%
    04:00 +7°C° 0,1 mm 2 m/s 708 mmHg 88%
    05:00 +7°C° 0,1 mm 2 m/s 708 mmHg 90%
    06:00 +7°C° 0,2 mm 3 m/s 708 mmHg 89%
    07:00 +7°C° 0,2 mm 3 m/s 709 mmHg 89%
    08:00 +7°C° 0,2 mm 3 m/s 709 mmHg 88%
    09:00 +7°C° 0,8 mm 3 m/s 709 mmHg 87%
    10:00 +6°C° 0,8 mm 4 m/s 710 mmHg 85%
    11:00 +7°C° 0,8 mm 4 m/s 710 mmHg 84%
    12:00 +6°C° 1,6 mm 5 m/s 709 mmHg 84%
    13:00 +6°C° 1,6 mm 5 m/s 709 mmHg 83%
    14:00 +5°C° 1,6 mm 6 m/s 709 mmHg 83%
    15:00 +5°C° 1,7 mm 6 m/s 709 mmHg 85%
    16:00 +5°C° 1,7 mm 6 m/s 709 mmHg 87%
    17:00 +5°C° 1,7 mm 6 m/s 710 mmHg 89%
    18:00 +5°C° 0,4 mm 6 m/s 710 mmHg 87%
    19:00 +5°C° 0,4 mm 5 m/s 710 mmHg 86%
    20:00 +5°C° 0,4 mm 5 m/s 711 mmHg 84%
    21:00 +5°C° 0,1 mm 5 m/s 711 mmHg 83%
    22:00 +3°C° 0,1 mm 5 m/s 711 mmHg 81%
    23:00 +3°C° 0,1 mm 5 m/s 712 mmHg 80%

    27 Janeiro, Sábado

    Tempo Temperatura Precipitação Vento Pressão Humidade
    00:00 +4°C° 0 mm 4 m/s 712 mmHg 80%
    01:00 +4°C° 0 mm 4 m/s 712 mmHg 80%
    02:00 +4°C° 0 mm 4 m/s 712 mmHg 80%
    03:00 +4°C° 0 mm 3 m/s 712 mmHg 79%
    04:00 +4°C° 0 mm 3 m/s 713 mmHg 78%
    05:00 +4°C° 0 mm 3 m/s 713 mmHg 77%
    06:00 +4°C° 0,2 mm 3 m/s 713 mmHg 77%
    07:00 +5°C° 0,2 mm 2 m/s 713 mmHg 77%
    08:00 +5°C° 0,2 mm 2 m/s 714 mmHg 77%
    09:00 +6°C° 0,5 mm 2 m/s 714 mmHg 76%
    10:00 +6°C° 0,5 mm 2 m/s 714 mmHg 75%
    11:00 +7°C° 0,5 mm 2 m/s 714 mmHg 74%
    12:00 +7°C° 0,2 mm 2 m/s 714 mmHg 71%
    13:00 +8°C° 0,2 mm 3 m/s 714 mmHg 69%
    14:00 +8°C° 0,2 mm 3 m/s 714 mmHg 67%
    15:00 +8°C° 0 mm 2 m/s 714 mmHg 68%
    16:00 +8°C° 0 mm 2 m/s 714 mmHg 70%
    17:00 +7°C° 0 mm 2 m/s 714 mmHg 72%
    18:00 +6°C° 0 mm 2 m/s 714 mmHg 74%
    19:00 +7°C° 0 mm 1 m/s 715 mmHg 76%
    20:00 +6°C° 0 mm 1 m/s 715 mmHg 78%
    21:00 +6°C° 0 mm 1 m/s 715 mmHg 78%
    22:00 +6°C° 0 mm 1 m/s 715 mmHg 79%
    23:00 +5°C° 0 mm 1 m/s 715 mmHg 79%
    Mostrar mais